TimeEDT,TemperatureF,Dew PointF,Humidity,Sea Level PressureIn,VisibilityMPH,Wind Direction,Wind SpeedMPH,Gust SpeedMPH,PrecipitationIn,Events,Conditions,WindDirDegrees,DateUTC
12:12 AM,60.8,57.2,88,30.06,10.0,Calm,Calm,-,N/A,,Clear,0,2013-06-15 04:12:00
12:32 AM,60.8,57.2,88,30.05,10.0,Calm,Calm,-,N/A,,Clear,0,2013-06-15 04:32:00
12:52 AM,59.0,57.2,94,30.04,10.0,Calm,Calm,-,N/A,,Clear,0,2013-06-15 04:52:00
1:12 AM,59.0,57.2,94,30.04,10.0,Calm,Calm,-,N/A,,Clear,0,2013-06-15 05:12:00
1:33 AM,59.0,57.2,94,30.03,10.0,Calm,Calm,-,N/A,,Clear,0,2013-06-15 05:33:00
1:53 AM,60.8,57.2,88,30.03,10.0,Calm,Calm,-,N/A,,Clear,0,2013-06-15 05:53:00
2:13 AM,60.8,57.2,88,30.03,10.0,Calm,Calm,-,N/A,,Clear,0,2013-06-15 06:13:00
2:33 AM,60.8,57.2,88,30.04,10.0,Calm,Calm,-,N/A,,Clear,0,2013-06-15 06:33:00
2:53 AM,59.0,57.2,94,30.05,10.0,Calm,Calm,-,N/A,,Clear,0,2013-06-15 06:53:00
3:13 AM,59.0,57.2,94,30.06,10.0,Calm,Calm,-,N/A,,Clear,0,2013-06-15 07:13:00
3:33 AM,57.2,57.2,100,30.06,7.0,Calm,Calm,-,N/A,,Clear,0,2013-06-15 07:33:00
3:53 AM,59.0,57.2,94,30.06,7.0,Calm,Calm,-,N/A,,Clear,0,2013-06-15 07:53:00
4:13 AM,59.0,57.2,94,30.05,7.0,Calm,Calm,-,N/A,,Clear,0,2013-06-15 08:13:00
4:33 AM,59.0,55.4,88,30.06,10.0,Calm,Calm,-,N/A,,Clear,0,2013-06-15 08:33:00
4:54 AM,59.0,55.4,88,30.05,10.0,Calm,Calm,-,N/A,,Clear,0,2013-06-15 08:54:00
5:14 AM,57.2,55.4,94,30.06,10.0,SSW,3.5,-,N/A,,Clear,200,2013-06-15 09:14:00
5:34 AM,57.2,55.4,94,30.05,10.0,Calm,Calm,-,N/A,,Clear,0,2013-06-15 09:34:00
5:54 AM,57.2,55.4,94,30.05,10.0,Calm,Calm,-,N/A,,Clear,0,2013-06-15 09:54:00
6:14 AM,57.2,55.4,94,30.06,10.0,Calm,Calm,-,N/A,,Clear,0,2013-06-15 10:14:00
6:34 AM,57.2,55.4,94,30.07,7.0,Calm,Calm,-,N/A,,Clear,0,2013-06-15 10:34:00
6:54 AM,59.0,55.4,88,30.07,10.0,Calm,Calm,-,N/A,,Clear,0,2013-06-15 10:54:00
7:14 AM,60.8,57.2,88,30.07,10.0,Calm,Calm,-,N/A,,Clear,0,2013-06-15 11:14:00
7:34 AM,62.6,57.2,82,30.08,10.0,WSW,3.5,-,N/A,,Clear,250,2013-06-15 11:34:00
7:54 AM,62.6,57.2,82,30.09,10.0,WSW,3.5,-,N/A,,Clear,250,2013-06-15 11:54:00
8:14 AM,64.4,59.0,83,30.10,10.0,WSW,3.5,-,N/A,,Clear,250,2013-06-15 12:14:00
8:35 AM,66.2,60.8,83,30.09,10.0,WSW,5.8,-,N/A,,Scattered Clouds,240,2013-06-15 12:35:00
8:55 AM,69.8,62.6,78,30.09,10.0,WSW,6.9,-,N/A,,Scattered Clouds,240,2013-06-15 12:55:00
9:15 AM,69.8,60.8,73,30.08,10.0,SW,10.4,-,N/A,,Scattered Clouds,230,2013-06-15 13:15:00
9:35 AM,71.6,60.8,69,30.07,10.0,SW,9.2,-,N/A,,Clear,220,2013-06-15 13:35:00
9:55 AM,73.4,60.8,65,30.07,10.0,SW,10.4,-,N/A,,Clear,230,2013-06-15 13:55:00
10:15 AM,73.4,60.8,65,30.07,10.0,WSW,10.4,-,N/A,,Clear,240,2013-06-15 14:15:00
10:35 AM,75.2,60.8,61,30.06,10.0,WSW,12.7,-,N/A,,Clear,250,2013-06-15 14:35:00
10:55 AM,75.2,60.8,61,30.06,10.0,WSW,10.4,-,N/A,,Clear,250,2013-06-15 14:55:00
11:15 AM,75.2,60.8,61,30.05,10.0,SW,10.4,-,N/A,,Clear,230,2013-06-15 15:15:00
11:35 AM,77.0,60.8,57,30.04,10.0,WSW,10.4,-,N/A,,Clear,250,2013-06-15 15:35:00
11:56 AM,77.0,60.8,57,30.03,10.0,SW,11.5,-,N/A,,Clear,230,2013-06-15 15:56:00
12:16 PM,78.8,60.8,54,30.03,10.0,SW,10.4,-,N/A,,Clear,230,2013-06-15 16:16:00
12:36 PM,78.8,60.8,54,30.02,10.0,SW,8.1,-,N/A,,Scattered Clouds,230,2013-06-15 16:36:00
12:56 PM,78.8,57.2,47,30.01,10.0,SW,9.2,-,N/A,,Scattered Clouds,230,2013-06-15 16:56:00
1:16 PM,80.6,57.2,45,30.02,10.0,WSW,8.1,-,N/A,,Clear,240,2013-06-15 17:16:00
1:36 PM,80.6,57.2,45,30.01,10.0,South,8.1,-,N/A,,Scattered Clouds,190,2013-06-15 17:36:00
1:56 PM,80.6,57.2,45,30.01,10.0,WSW,6.9,-,N/A,,Scattered Clouds,250,2013-06-15 17:56:00
2:11 PM,80.6,57.2,45,30.01,10.0,SSW,5.8,-,N/A,,Scattered Clouds,210,2013-06-15 18:11:00
2:31 PM,78.8,57.2,47,30.01,10.0,SW,9.2,-,N/A,,Scattered Clouds,230,2013-06-15 18:31:00
2:52 PM,78.8,57.2,47,30.01,10.0,SSW,8.1,-,N/A,,Clear,210,2013-06-15 18:52:00
3:12 PM,77.0,60.8,57,30.02,10.0,WSW,8.1,-,N/A,Rain,Light Rain,240,2013-06-15 19:12:00
3:32 PM,77.0,59.0,54,30.01,10.0,SW,9.2,-,N/A,Rain,Light Rain,220,2013-06-15 19:32:00
3:52 PM,77.0,60.8,57,30.01,10.0,SW,5.8,-,N/A,,Mostly Cloudy,230,2013-06-15 19:52:00
4:12 PM,77.0,60.8,57,30.01,10.0,WSW,8.1,-,N/A,Rain,Light Rain,250,2013-06-15 20:12:00
4:32 PM,78.8,60.8,54,30.01,10.0,WSW,9.2,-,N/A,,Clear,250,2013-06-15 20:32:00
4:52 PM,78.8,62.6,57,30.01,10.0,WSW,9.2,19.6,N/A,,Scattered Clouds,240,2013-06-15 20:52:00
5:12 PM,77.0,60.8,57,30.01,10.0,SW,9.2,-,N/A,,Clear,220,2013-06-15 21:12:00
5:32 PM,77.0,62.6,61,30.00,10.0,SW,6.9,-,N/A,,Clear,230,2013-06-15 21:32:00
5:52 PM,75.2,60.8,61,30.01,10.0,WSW,10.4,-,N/A,Rain,Light Rain,250,2013-06-15 21:52:00
6:13 PM,73.4,62.6,69,30.00,10.0,WSW,5.8,-,N/A,Rain,Light Rain,250,2013-06-15 22:13:00
6:33 PM,73.4,62.6,69,30.00,10.0,WSW,5.8,-,N/A,Rain,Light Rain,250,2013-06-15 22:33:00
6:53 PM,71.6,64.4,78,29.99,10.0,SW,3.5,-,N/A,Rain,Light Rain,230,2013-06-15 22:53:00
7:13 PM,73.4,64.4,73,29.98,10.0,WSW,6.9,-,N/A,,Scattered Clouds,240,2013-06-15 23:13:00
7:33 PM,73.4,64.4,73,29.97,10.0,SW,6.9,-,N/A,,Clear,230,2013-06-15 23:33:00
7:53 PM,71.6,64.4,78,29.96,10.0,SW,6.9,-,N/A,,Clear,230,2013-06-15 23:53:00
8:13 PM,71.6,64.4,78,29.95,10.0,SW,4.6,-,N/A,,Clear,220,2013-06-16 00:13:00
8:33 PM,71.6,64.4,78,29.95,10.0,SW,3.5,-,N/A,,Clear,230,2013-06-16 00:33:00
8:53 PM,71.6,62.6,73,29.95,10.0,WSW,3.5,-,N/A,,Clear,250,2013-06-16 00:53:00
9:14 PM,69.8,64.4,83,29.96,10.0,Calm,Calm,-,N/A,,Scattered Clouds,0,2013-06-16 01:14:00
9:34 PM,69.8,64.4,83,29.95,10.0,Calm,Calm,-,N/A,,Scattered Clouds,0,2013-06-16 01:34:00
9:54 PM,68.0,64.4,88,29.96,10.0,Calm,Calm,-,N/A,,Mostly Cloudy,0,2013-06-16 01:54:00
10:14 PM,69.8,64.4,83,29.96,10.0,South,3.5,-,N/A,,Mostly Cloudy,170,2013-06-16 02:14:00
10:34 PM,69.8,64.4,83,29.97,10.0,Calm,Calm,-,N/A,,Scattered Clouds,0,2013-06-16 02:34:00
10:54 PM,69.8,64.4,83,29.96,10.0,Calm,Calm,-,N/A,,Clear,0,2013-06-16 02:54:00
11:14 PM,66.2,62.6,88,29.95,10.0,Calm,Calm,-,N/A,,Clear,0,2013-06-16 03:14:00
11:34 PM,66.2,64.4,94,29.94,10.0,Calm,Calm,-,N/A,,Clear,0,2013-06-16 03:34:00
11:54 PM,66.2,64.4,94,29.94,7.0,Calm,Calm,-,N/A,,Clear,0,2013-06-16 03:54:00